OSD weather

Åre Östersund Airport
Östersund, Jämtlande län, Sweden

Public forecast

Using degrees Celsius for public forecast. Weather courtesy of forecast.io.

Current aviation weather report (METAR) for Åre Östersund Airport

Retrieved 2020/01/19 18:20 UTC (0 seconds ago):

ESNZ 191820Z 29014KT CAVOK 01/M03 Q1024

Closest aviation forecast (TAF) to Åre Östersund Airport

Forecast is more than 12 hours old.

Closest forecast is Kramfors Sollefteå Airport, 89.1 nm (165.1 km) E. Retrieved 2015/10/08 12:00 UTC (4 years ago):

TAF ESNK 081130Z 0812/0824 18005KT CAVOK PROB40 0820/0824 4000 BR